User: anonymous   Login
Location: Newark
(48.7667°N, 7.9833°E)
Time: 20:20:14
(UTC+00:00)
Language:

PCSat - Orbit

View from above orbital plane
View from above orbital plane
View from above satellite
View from above satellite

Ground track
Ground track

The orbit data is extracted from the following two-line orbital elements,

1 26931U 01043C   19296.46454503 -.00000053  00000-0  11462-4 0  9994
2 26931  67.0531  36.5414 0007476 267.4839  92.5406 14.30555944943104
Epoch (UTC): 23 October 2019 11:08:56
Eccentricity: 0.0007476
inclination: 67.0531°
perigee height: 784 km
apogee height: 795 km
right ascension of ascending node: 36.5414°
argument of perigee: 267.4839°
revolutions per day: 14.30555944
mean anomaly at epoch: 92.5406°
orbit number at epoch: 94310

The dashed part of the orbit path shows where the satellite is in the earth's shadow,  

DLR